Location: North Evanston
(42.0634°N, 87.6976°W)
Time: 23:15:07
(UTC+00:00)

Transit 2A - Pass Details

Date: 14 May 2026
Orbit: 595 x 949 km, 66.7° (Epoch: 5 June)

Event Time Altitude Azimuth Distance (km) Brightness Sun altitude
Rises 06:16:08 0° 333° (NNW) 3,191 10.0 -28.9°
Reaches altitude 10° 06:18:41 10° 338° (NNW) 2,205 9.1 -28.9°
Enters shadow 06:23:14 51° 41° (NE) 850 6.4 -28.7°
Maximum altitude 06:23:31 51° 54° (NE) 838 - -28.7°
Drops below altitude 10° 06:27:56 10° 132° (SE) 2,009 - -28.6°
Sets 06:30:09 0° 137° (SE) 2,879 - -28.5°
